Flag for Kazakhstan Weather past 2 weeks in Karaganda, Kazakhstan

Now
12 °F

Passing clouds.


Feels Like: -1 °F
Forecast: -1 / 12 °F
Wind: 10 mph from Southwest

Location: Karaganda

Current Time: Dec 28, 2014 at 12:36:44 AM

Latest Report: Dec 28, 2014 at 12:00 AM


Visibility: N/A

Pressure: 30.30 "Hg

Humidity: 92%

Dew point: 10 °F

Location of KaragandaLocation

Historic Weather in Karaganda — Graph

°F

Karaganda temperature yesterday

Maximum temperature yesterday: 34 °F (at 4:00 AM)
Minimum temperature yesterday: 10 °F (at 11:30 PM)
Average temperature yesterday: 24 °F

Past Weeks' High & Low Weather Summary

 TemperatureHumidityPressure
High36 °F (Dec 25, 10:00 PM)100% (Dec 26, 2:30 AM)30.77 "Hg (Dec 26, 2:30 AM)
Low-13 °F (Dec 15, 7:00 AM)46% (Dec 16, 1:00 PM)29.62 "Hg (Dec 25, 11:30 PM)
Average15 °F82%30.27 "Hg
* Reported Dec 12 11:00 PM — Dec 27 11:30 PM, Karaganda, Weather by CustomWeather, © 2014

Note: Actual official high and low records may vary slightly from our data, if they occured in-between our weather recording intervals... More about our weather records

Advertising

Karaganda weather history for previous 24 hours

 ConditionsComfort  
Time TempWeatherWind HumidityBarometerVisibility
11:30 PM
Dec 27
10 °FPassing clouds.8 mph92%30.27 "HgN/A
11:00 PM12 °FPassing clouds.10 mph85%30.27 "HgN/A
10:30 PM12 °FPassing clouds.13 mph85%30.27 "HgN/A
10:00 PM12 °FPassing clouds.17 mph92%30.27 "HgN/A
9:30 PM14 °FPassing clouds.17 mph85%30.24 "HgN/A
9:00 PM12 °FPassing clouds.8 mph85%30.27 "HgN/A
8:30 PM12 °FClear.10 mph85%30.24 "Hg10 mi
8:00 PM12 °FClear.13 mph92%30.21 "Hg10 mi
7:30 PM14 °FClear.13 mph85%30.21 "Hg10 mi
7:00 PM14 °FClear.15 mph85%30.21 "Hg10 mi
6:30 PM16 °FPassing clouds.15 mph86%30.21 "HgN/A
6:00 PM18 °FOvercast.15 mph79%30.18 "HgN/A
5:30 PM18 °FOvercast.20 mph79%30.18 "HgN/A
5:00 PM19 °FOvercast.20 mph73%30.15 "HgN/A
4:30 PM19 °FOvercast.22 mph73%30.15 "HgN/A
4:00 PM19 °FOvercast.22 mph79%30.12 "HgN/A
3:30 PM19 °FOvercast.20 mph79%30.12 "HgN/A
3:00 PM19 °FOvercast.24 mph79%30.09 "Hg5 mi
2:30 PM21 °FOvercast.26 mph80%30.09 "Hg3 mi
2:00 PM21 °FSnow. Overcast.24 mph80%30.09 "Hg2 mi
1:30 PM21 °FSnow. Overcast.22 mph86%30.07 "Hg2 mi
1:00 PM21 °FSnow. Overcast.26 mph93%30.07 "Hg1 mi
12:30 PM23 °FMostly cloudy.20 mph93%30.04 "HgN/A
12:00 PM23 °FPartly sunny.20 mph86%30.04 "HgN/A
11:30 AM25 °FLight snow. Mostly cloudy.20 mph86%30.04 "Hg5 mi
11:00 AM25 °FSnow. Low clouds.22 mph93%30.01 "Hg2 mi
10:30 AM27 °FHeavy snow. Low clouds.31 mph86%29.98 "Hg0 mi
9:30 AM28 °FMostly cloudy.31 mph69%29.95 "HgN/A
9:00 AM28 °FOvercast.33 mph80%29.95 "Hg3 mi
8:30 AM30 °FOvercast.26 mph80%29.92 "HgN/A
8:00 AM30 °FOvercast.29 mph80%29.92 "HgN/A
7:30 AM30 °FLight snow. Overcast.26 mph86%29.89 "Hg5 mi
7:00 AM30 °FLight snow. Overcast.29 mph93%29.89 "Hg4 mi
6:30 AM30 °FHeavy rain. Low clouds.33 mph100%29.86 "Hg0 mi
6:00 AM32 °FLight rain. Mostly cloudy.29 mph100%29.86 "HgN/A
5:30 AM32 °FLight rain. Mostly cloudy.31 mph100%29.83 "Hg5 mi
5:00 AM32 °FLight rain. Mostly cloudy.29 mph100%29.83 "Hg5 mi
4:30 AM34 °FMostly cloudy.33 mph93%29.83 "HgN/A
4:00 AM34 °FLight rain. Mostly cloudy.31 mph93%29.83 "Hg5 mi
3:30 AM32 °FRain. Low clouds.31 mph100%29.80 "Hg2 mi
3:00 AM32 °FLight rain. Low clouds.29 mph100%29.80 "Hg3 mi
2:30 AM32 °FRain. Low clouds.33 mph100%29.80 "Hg1 mi
2:00 AM32 °FRain. Low clouds.38 mph100%29.80 "Hg2 mi
1:30 AM32 °FLight snow. Low clouds.38 mph100%29.80 "Hg1 mi
1:00 AM32 °FLight snow. Low clouds.36 mph100%29.83 "Hg1 mi
12:30 AM32 °FSnow. Low clouds.33 mph100%29.83 "Hg1 mi
12:00 AM32 °FSnow. Overcast.38 mph93%29.83 "Hg0 mi
Weather by CustomWeather, © 2014

See weather overviewHow to use our weather pages